Location: Sweet Grass
(48.9965°N, 111.9649°W)
Time: 08:00:32
(UTC+00:00)

DIWATA 2B (PO-101) - Pass Details

Date: 10 April 2023
Orbit: 581 x 594 km, 98.0° (Epoch: 03 June)

Event Time Altitude Azimuth Distance (km) Brightness Sun altitude
Exits shadow 10:56:24 18° 292° (WNW) 1,482 ? -17.3°
Drops below altitude 10° 10:58:13 10° 316° (NW) 1,912 ? -17.1°
Sets 11:00:53 0° 333° (NNW) 2,820 ? -16.7°
